Time,TemperatureF,DewpointF,PressureIn,WindDirection,WindDirectionDegrees,WindSpeedMPH,WindSpeedGustMPH,Humidity,HourlyPrecipIn,Conditions,Clouds,dailyrainin,SoftwareType,DateUTC
2013-05-14 00:01:00,35.0,29.8,30.35,NW,315,0.4,2.7,81,0.00,,CLR,0.00,VWS V13.01,2013-05-14 04:01:00,
2013-05-14 00:02:00,35.0,29.9,30.35,NW,315,0.4,2.7,81,0.00,,CLR,0.00,VWS V13.01,2013-05-14 04:02:00,
2013-05-14 00:07:00,34.8,29.9,30.35,NW,315,0.4,2.7,82,0.00,,CLR,0.00,VWS V13.01,2013-05-14 04:07:00,
2013-05-14 00:12:00,34.8,29.9,30.35,NW,315,0.4,2.7,82,0.00,,CLR,0.00,VWS V13.01,2013-05-14 04:12:00,
2013-05-14 00:17:00,34.8,29.9,30.35,NW,315,0.4,2.7,82,0.00,,CLR,0.00,VWS V13.01,2013-05-14 04:17:00,
2013-05-14 00:22:00,34.7,29.8,30.36,NW,315,0.4,2.7,82,0.00,,CLR,0.00,VWS V13.01,2013-05-14 04:22:00,
2013-05-14 00:27:00,34.7,29.8,30.35,NW,315,0.4,2.7,82,0.00,,CLR,0.00,VWS V13.01,2013-05-14 04:27:00,
2013-05-14 00:32:00,34.5,29.6,30.35,NW,315,0.4,2.7,82,0.00,,CLR,0.00,VWS V13.01,2013-05-14 04:32:00,
2013-05-14 00:37:00,34.5,29.4,30.35,NW,315,0.4,2.7,82,0.00,,CLR,0.00,VWS V13.01,2013-05-14 04:37:00,
2013-05-14 00:42:00,34.3,29.4,30.35,NW,315,0.4,2.7,83,0.00,,CLR,0.00,VWS V13.01,2013-05-14 04:42:00,
2013-05-14 00:47:00,34.3,29.5,30.35,NW,315,0.4,2.7,83,0.00,,CLR,0.00,VWS V13.01,2013-05-14 04:47:00,
2013-05-14 00:52:00,34.1,29.5,30.35,NW,315,0.4,2.7,83,0.00,,CLR,0.00,VWS V13.01,2013-05-14 04:52:00,
2013-05-14 00:57:00,34.1,29.0,30.35,NW,315,0.4,2.7,83,0.00,,CLR,0.00,VWS V13.01,2013-05-14 04:57:00,
2013-05-14 01:02:00,33.9,29.0,30.35,NW,315,0.4,2.7,82,0.00,,CLR,0.00,VWS V13.01,2013-05-14 05:02:00,
2013-05-14 01:07:00,33.8,28.7,30.34,NW,315,0.4,2.7,82,0.00,,CLR,0.00,VWS V13.01,2013-05-14 05:07:00,
2013-05-14 01:12:00,33.6,29.0,30.35,NW,315,0.4,2.7,82,0.00,,CLR,0.00,VWS V13.01,2013-05-14 05:12:00,
2013-05-14 01:17:00,33.6,29.0,30.35,NW,315,0.4,2.7,82,0.00,,CLR,0.00,VWS V13.01,2013-05-14 05:17:00,
2013-05-14 01:22:00,33.4,28.7,30.35,NW,315,0.4,2.7,83,0.00,,CLR,0.00,VWS V13.01,2013-05-14 05:22:00,
2013-05-14 01:27:00,33.4,28.6,30.34,NW,315,0.4,2.7,83,0.00,,CLR,0.00,VWS V13.01,2013-05-14 05:27:00,
2013-05-14 01:32:00,33.0,28.4,30.34,NW,315,0.4,2.7,83,0.00,,CLR,0.00,VWS V13.01,2013-05-14 05:32:00,
2013-05-14 01:37:00,33.0,28.4,30.34,NW,315,0.4,2.7,83,0.00,,CLR,0.00,VWS V13.01,2013-05-14 05:37:00,
2013-05-14 01:42:00,33.0,28.4,30.35,NW,315,0.4,2.7,83,0.00,,CLR,0.00,VWS V13.01,2013-05-14 05:42:00,
2013-05-14 01:47:00,32.9,28.6,30.35,NW,315,0.4,2.7,83,0.00,,CLR,0.00,VWS V13.01,2013-05-14 05:47:00,
2013-05-14 01:52:00,32.9,28.6,30.35,NW,315,0.4,2.7,84,0.00,,CLR,0.00,VWS V13.01,2013-05-14 05:52:00,
2013-05-14 01:57:00,32.9,28.6,30.35,NW,315,0.4,2.7,84,0.00,,CLR,0.00,VWS V13.01,2013-05-14 05:57:00,
2013-05-14 02:03:00,32.9,28.6,30.35,NW,315,0.4,2.7,84,0.00,,CLR,0.00,VWS V13.01,2013-05-14 06:03:00,
2013-05-14 02:08:00,32.9,28.6,30.35,NW,315,0.4,2.7,84,0.00,,CLR,0.00,VWS V13.01,2013-05-14 06:08:00,
2013-05-14 02:13:00,32.9,28.4,30.35,NW,315,0.4,2.7,84,0.00,,CLR,0.00,VWS V13.01,2013-05-14 06:13:00,
2013-05-14 02:18:00,32.7,28.4,30.35,NW,315,0.4,2.7,84,0.00,,CLR,0.00,VWS V13.01,2013-05-14 06:18:00,
2013-05-14 02:23:00,32.5,28.2,30.35,NW,315,0.4,2.7,84,0.00,,CLR,0.00,VWS V13.01,2013-05-14 06:23:00,
2013-05-14 02:28:00,32.5,28.2,30.35,NW,315,0.4,2.7,84,0.00,,CLR,0.00,VWS V13.01,2013-05-14 06:28:00,
2013-05-14 02:33:00,32.5,28.0,30.35,NW,315,0.4,2.7,84,0.00,,CLR,0.00,VWS V13.01,2013-05-14 06:33:00,
2013-05-14 02:38:00,32.3,28.0,30.36,NW,315,0.4,2.7,84,0.00,,CLR,0.00,VWS V13.01,2013-05-14 06:38:00,
2013-05-14 02:43:00,32.3,28.0,30.35,NW,315,0.4,2.7,84,0.00,,CLR,0.00,VWS V13.01,2013-05-14 06:43:00,
2013-05-14 02:48:00,32.3,28.0,30.35,NW,315,0.4,2.7,84,0.00,,CLR,0.00,VWS V13.01,2013-05-14 06:48:00,
2013-05-14 02:53:00,32.3,27.8,30.35,NW,315,0.4,2.7,84,0.00,,CLR,0.00,VWS V13.01,2013-05-14 06:53:00,
2013-05-14 02:58:00,32.1,27.8,30.35,NW,315,0.4,2.7,84,0.00,,CLR,0.00,VWS V13.01,2013-05-14 06:58:00,
2013-05-14 03:04:00,32.1,28.1,30.35,NW,315,0.4,2.7,84,0.00,,CLR,0.00,VWS V13.01,2013-05-14 07:04:00,
2013-05-14 03:09:00,32.1,28.1,30.35,NW,315,0.4,2.7,85,0.00,,CLR,0.00,VWS V13.01,2013-05-14 07:09:00,
2013-05-14 03:14:00,31.8,28.1,30.35,NW,315,0.4,2.7,85,0.00,,CLR,0.00,VWS V13.01,2013-05-14 07:14:00,
2013-05-14 03:19:00,31.8,27.8,30.35,NW,315,0.4,2.7,85,0.00,,CLR,0.00,VWS V13.01,2013-05-14 07:19:00,
2013-05-14 03:24:00,31.8,27.8,30.35,NW,315,0.4,2.7,85,0.00,,CLR,0.00,VWS V13.01,2013-05-14 07:24:00,
2013-05-14 03:29:00,31.8,27.8,30.35,NW,315,0.4,2.7,85,0.00,,CLR,0.00,VWS V13.01,2013-05-14 07:29:00,
2013-05-14 03:34:00,31.8,27.8,30.35,NW,315,0.4,2.7,85,0.00,,CLR,0.00,VWS V13.01,2013-05-14 07:34:00,
2013-05-14 03:39:00,31.8,27.8,30.35,NW,315,0.4,2.7,85,0.00,,CLR,0.00,VWS V13.01,2013-05-14 07:39:00,
2013-05-14 03:44:00,31.8,27.8,30.36,NW,315,0.4,2.7,85,0.00,,CLR,0.00,VWS V13.01,2013-05-14 07:44:00,
2013-05-14 03:49:00,31.6,27.6,30.36,NW,315,0.4,2.7,85,0.00,,CLR,0.00,VWS V13.01,2013-05-14 07:49:00,
2013-05-14 03:54:00,31.6,27.6,30.36,NW,315,0.4,2.7,85,0.00,,CLR,0.00,VWS V13.01,2013-05-14 07:54:00,
2013-05-14 03:59:00,31.6,27.6,30.35,NW,315,0.4,2.7,85,0.00,,CLR,0.00,VWS V13.01,2013-05-14 07:59:00,
2013-05-14 04:04:00,31.6,27.6,30.35,NW,315,0.4,2.7,85,0.00,,BKN065,0.00,VWS V13.01,2013-05-14 08:04:00,
2013-05-14 04:10:00,31.6,27.9,30.35,NW,315,0.4,2.7,85,0.00,,BKN065,0.00,VWS V13.01,2013-05-14 08:10:00,
2013-05-14 04:15:00,31.4,27.9,30.35,NW,315,0.4,2.7,86,0.00,,BKN065,0.00,VWS V13.01,2013-05-14 08:15:00,
2013-05-14 04:20:00,31.2,27.9,30.36,NW,315,0.4,2.7,86,0.00,,BKN065,0.00,VWS V13.01,2013-05-14 08:20:00,
2013-05-14 04:25:00,31.2,27.5,30.35,NW,315,0.4,2.7,86,0.00,,BKN065,0.00,VWS V13.01,2013-05-14 08:25:00,
2013-05-14 04:30:00,31.2,27.5,30.35,NW,315,0.4,2.7,86,0.00,,BKN065,0.00,VWS V13.01,2013-05-14 08:30:00,
2013-05-14 04:35:00,31.2,27.5,30.36,NW,315,0.4,2.7,86,0.00,,,0.00,VWS V13.01,2013-05-14 08:35:00,
2013-05-14 04:40:00,31.2,27.5,30.36,NW,315,0.4,2.7,86,0.00,,,0.00,VWS V13.01,2013-05-14 08:40:00,
2013-05-14 04:45:00,31.1,27.4,30.36,NW,315,0.4,2.7,86,0.00,,,0.00,VWS V13.01,2013-05-14 08:45:00,
2013-05-14 04:50:00,31.1,27.5,30.36,NW,315,0.4,2.7,86,0.00,,,0.00,VWS V13.01,2013-05-14 08:50:00,
2013-05-14 04:55:00,31.1,27.4,30.36,NW,315,0.4,2.7,86,0.00,,,0.00,VWS V13.01,2013-05-14 08:55:00,
2013-05-14 05:00:00,31.1,27.4,30.36,NW,315,0.4,2.7,86,0.00,,,0.00,VWS V13.01,2013-05-14 09:00:00,
2013-05-14 05:05:00,31.1,27.4,30.36,NW,315,0.4,2.7,86,0.00,,,0.00,VWS V13.01,2013-05-14 09:05:00,
2013-05-14 05:10:00,31.1,27.2,30.36,NW,315,0.4,2.7,86,0.00,,,0.00,VWS V13.01,2013-05-14 09:10:00,
2013-05-14 05:16:00,30.9,27.2,30.36,NW,315,0.4,2.7,86,0.00,,,0.00,VWS V13.01,2013-05-14 09:16:00,
2013-05-14 05:21:00,30.9,27.2,30.36,NW,315,0.4,2.7,86,0.00,,,0.00,VWS V13.01,2013-05-14 09:21:00,
2013-05-14 05:26:00,30.9,27.2,30.37,NW,315,0.4,2.7,86,0.00,,,0.00,VWS V13.01,2013-05-14 09:26:00,
2013-05-14 05:31:00,30.9,27.2,30.36,NW,315,0.4,2.7,86,0.00,,,0.00,VWS V13.01,2013-05-14 09:31:00,
2013-05-14 05:36:00,30.9,27.2,30.36,NW,315,0.4,2.7,86,0.00,,,0.00,VWS V13.01,2013-05-14 09:36:00,
2013-05-14 05:41:00,30.7,27.0,30.36,NW,315,0.4,2.7,86,0.00,,,0.00,VWS V13.01,2013-05-14 09:41:00,
2013-05-14 05:46:00,30.7,27.0,30.36,NW,315,0.4,2.7,86,0.00,,,0.00,VWS V13.01,2013-05-14 09:46:00,
2013-05-14 05:51:00,30.7,27.0,30.36,NW,315,0.4,2.7,86,0.00,,,0.00,VWS V13.01,2013-05-14 09:51:00,
2013-05-14 05:56:00,30.7,27.3,30.36,NW,315,0.4,2.7,86,0.00,,,0.00,VWS V13.01,2013-05-14 09:56:00,
2013-05-14 06:01:00,30.5,27.0,30.36,NW,315,0.4,2.7,87,0.00,,,0.00,VWS V13.01,2013-05-14 10:01:00,
2013-05-14 06:06:00,30.5,27.1,30.36,NW,315,0.4,2.7,87,0.00,,,0.00,VWS V13.01,2013-05-14 10:06:00,
2013-05-14 06:11:00,30.5,27.1,30.36,NW,315,0.2,2.7,87,0.00,,,0.00,VWS V13.01,2013-05-14 10:11:00,
2013-05-14 06:16:00,30.5,26.9,30.36,NW,315,0.2,2.7,87,0.00,,,0.00,VWS V13.01,2013-05-14 10:16:00,
2013-05-14 06:21:00,30.3,26.9,30.37,NW,315,0.2,2.7,87,0.00,,,0.00,VWS V13.01,2013-05-14 10:21:00,
2013-05-14 06:26:00,30.3,26.9,30.37,NW,315,0.2,2.7,87,0.00,,,0.00,VWS V13.01,2013-05-14 10:26:00,
2013-05-14 06:31:00,30.3,26.9,30.37,NW,315,0.2,2.7,87,0.00,,,0.00,VWS V13.01,2013-05-14 10:31:00,
2013-05-14 06:36:00,30.5,26.9,30.37,NW,315,0.2,2.7,87,0.00,,,0.00,VWS V13.01,2013-05-14 10:36:00,
2013-05-14 06:41:00,30.5,27.1,30.37,NW,315,0.2,2.7,87,0.00,,,0.00,VWS V13.01,2013-05-14 10:41:00,
2013-05-14 06:46:00,30.5,27.1,30.37,NW,315,0.2,2.7,87,0.00,,,0.00,VWS V13.01,2013-05-14 10:46:00,
2013-05-14 06:51:00,30.5,27.1,30.37,NE,45,0.2,2.7,87,0.00,,,0.00,VWS V13.01,2013-05-14 10:51:00,
2013-05-14 06:56:00,30.5,27.4,30.37,NE,45,0.2,2.7,87,0.00,,,0.00,VWS V13.01,2013-05-14 10:56:00,
2013-05-14 07:01:00,30.5,27.4,30.37,NE,45,0.2,2.7,87,0.00,,,0.00,VWS V13.01,2013-05-14 11:01:00,
2013-05-14 07:06:00,30.7,27.6,30.37,NE,45,0.2,2.7,88,0.00,,,0.00,VWS V13.01,2013-05-14 11:06:00,
2013-05-14 07:11:00,30.7,27.6,30.38,NE,45,0.2,2.7,88,0.00,,,0.00,VWS V13.01,2013-05-14 11:11:00,
2013-05-14 07:17:00,30.9,27.6,30.37,NE,45,0.2,2.7,88,0.00,,,0.00,VWS V13.01,2013-05-14 11:17:00,
2013-05-14 07:22:00,30.9,27.8,30.37,NE,45,0.2,2.7,88,0.00,,,0.00,VWS V13.01,2013-05-14 11:22:00,
2013-05-14 07:27:00,31.1,28.0,30.38,NE,45,0.2,2.7,88,0.00,,,0.00,VWS V13.01,2013-05-14 11:27:00,
2013-05-14 07:32:00,31.2,28.1,30.38,NE,45,0.2,2.7,88,0.00,,,0.00,VWS V13.01,2013-05-14 11:32:00,
2013-05-14 07:37:00,31.6,28.3,30.38,NE,45,0.2,2.7,88,0.00,,,0.00,VWS V13.01,2013-05-14 11:37:00,
2013-05-14 07:42:00,31.6,28.3,30.38,NE,45,0.2,2.7,88,0.00,,,0.00,VWS V13.01,2013-05-14 11:42:00,
2013-05-14 07:47:00,31.8,28.7,30.38,NE,45,0.2,2.7,88,0.00,,,0.00,VWS V13.01,2013-05-14 11:47:00,
2013-05-14 07:52:00,32.1,29.1,30.38,NE,45,0.2,2.7,88,0.00,,,0.00,VWS V13.01,2013-05-14 11:52:00,
2013-05-14 07:57:00,32.5,29.6,30.38,NE,45,0.2,2.7,88,0.00,,,0.00,VWS V13.01,2013-05-14 11:57:00,
2013-05-14 08:02:00,32.5,29.8,30.38,NE,45,0.2,2.7,89,0.00,,,0.00,VWS V13.01,2013-05-14 12:02:00,
2013-05-14 08:07:00,33.4,30.4,30.39,NE,45,0.2,2.7,88,0.00,,,0.00,VWS V13.01,2013-05-14 12:07:00,
2013-05-14 08:12:00,33.6,30.7,30.38,NE,45,0.2,2.7,88,0.00,,,0.00,VWS V13.01,2013-05-14 12:12:00,
2013-05-14 08:17:00,33.6,31.6,30.39,NE,45,0.2,2.7,88,0.00,,,0.00,VWS V13.01,2013-05-14 12:17:00,
2013-05-14 08:22:00,34.5,31.9,30.38,NE,45,0.2,2.7,89,0.00,,,0.00,VWS V13.01,2013-05-14 12:22:00,
2013-05-14 08:27:00,35.2,32.2,30.38,NE,45,0.2,2.7,88,0.00,,,0.00,VWS V13.01,2013-05-14 12:27:00,
2013-05-14 08:32:00,35.7,32.5,30.39,NE,45,0.2,2.7,88,0.00,,,0.00,VWS V13.01,2013-05-14 12:32:00,
2013-05-14 08:37:00,35.9,33.1,30.39,NE,45,0.2,2.7,88,0.00,,,0.00,VWS V13.01,2013-05-14 12:37:00,
2013-05-14 08:42:00,36.5,32.7,30.39,NE,45,0.2,2.7,88,0.00,,,0.00,VWS V13.01,2013-05-14 12:42:00,
2013-05-14 08:47:00,36.6,33.9,30.38,NE,45,0.2,2.7,88,0.00,,,0.00,VWS V13.01,2013-05-14 12:47:00,
2013-05-14 08:52:00,37.2,34.1,30.39,NW,315,0.2,2.7,89,0.00,,,0.00,VWS V13.01,2013-05-14 12:52:00,
2013-05-14 08:57:00,37.0,34.8,30.39,WNW,292,0.2,2.7,89,0.00,,,0.00,VWS V13.01,2013-05-14 12:57:00,
2013-05-14 09:02:00,37.9,35.0,30.39,WNW,292,0.2,2.7,89,0.00,,,0.00,VWS V13.01,2013-05-14 13:02:00,
2013-05-14 09:07:00,38.4,34.9,30.39,WNW,292,0.2,2.7,88,0.00,,,0.00,VWS V13.01,2013-05-14 13:07:00,
2013-05-14 09:12:00,38.8,34.9,30.39,WNW,292,0.2,2.7,88,0.00,,,0.00,VWS V13.01,2013-05-14 13:12:00,
2013-05-14 09:17:00,38.1,36.0,30.39,WNW,292,0.6,2.7,88,0.00,,,0.00,VWS V13.01,2013-05-14 13:17:00,
2013-05-14 09:23:00,39.5,36.4,30.39,WNW,292,0.6,2.7,88,0.00,,,0.00,VWS V13.01,2013-05-14 13:23:00,
2013-05-14 09:28:00,40.1,36.2,30.39,WNW,292,2.2,2.7,88,0.00,,,0.00,VWS V13.01,2013-05-14 13:28:00,
2013-05-14 09:33:00,40.2,37.0,30.39,WNW,292,2.2,2.7,87,0.00,,BKN001,0.00,VWS V13.01,2013-05-14 13:33:00,
2013-05-14 09:38:00,40.8,37.5,30.39,WNW,292,2.2,2.7,87,0.00,,BKN001,0.00,VWS V13.01,2013-05-14 13:38:00,
2013-05-14 09:43:00,41.5,37.2,30.39,WNW,292,0.6,2.7,86,0.00,,BKN001,0.00,VWS V13.01,2013-05-14 13:43:00,
2013-05-14 09:48:00,40.8,38.1,30.38,West,270,0.6,2.7,87,0.00,,BKN001,0.00,VWS V13.01,2013-05-14 13:48:00,
2013-05-14 09:53:00,42.0,38.4,30.38,West,270,4.4,4.4,86,0.00,,BKN001,0.00,VWS V13.01,2013-05-14 13:53:00,
2013-05-14 09:58:00,42.0,38.1,30.38,West,270,1.3,2.7,86,0.00,,BKN001,0.00,VWS V13.01,2013-05-14 13:58:00,
2013-05-14 10:03:00,43.1,38.4,30.38,NNW,338,5.3,5.3,83,0.00,,CLR,0.00,VWS V13.01,2013-05-14 14:03:00,
2013-05-14 10:08:00,43.5,38.5,30.38,WSW,248,3.1,3.1,82,0.00,,CLR,0.00,VWS V13.01,2013-05-14 14:08:00,
2013-05-14 10:13:00,43.5,38.8,30.38,West,270,3.1,3.1,82,0.00,,CLR,0.00,VWS V13.01,2013-05-14 14:13:00,
2013-05-14 10:18:00,44.7,38.4,30.38,WNW,292,6.2,6.2,79,0.00,,CLR,0.00,VWS V13.01,2013-05-14 14:18:00,
2013-05-14 10:23:00,44.7,39.0,30.38,West,270,3.3,3.3,79,0.00,,CLR,0.00,VWS V13.01,2013-05-14 14:23:00,
2013-05-14 10:28:00,45.1,39.5,30.38,West,270,4.6,4.6,79,0.00,,CLR,0.00,VWS V13.01,2013-05-14 14:28:00,
2013-05-14 10:33:00,46.0,39.7,30.38,WNW,292,4.9,4.9,78,0.00,,CLR,0.00,VWS V13.01,2013-05-14 14:33:00,
2013-05-14 10:38:00,46.5,39.7,30.38,West,270,2.4,2.7,78,0.00,,CLR,0.00,VWS V13.01,2013-05-14 14:38:00,
2013-05-14 10:43:00,46.9,40.1,30.38,West,270,2.4,2.7,76,0.00,,CLR,0.00,VWS V13.01,2013-05-14 14:43:00,
2013-05-14 10:48:00,47.4,39.9,30.38,SW,225,3.5,3.5,75,0.00,,CLR,0.00,VWS V13.01,2013-05-14 14:48:00,
2013-05-14 10:54:00,48.2,40.1,30.37,West,270,3.1,3.1,73,0.00,,CLR,0.00,VWS V13.01,2013-05-14 14:54:00,
2013-05-14 10:59:00,48.3,40.2,30.37,SW,225,6.4,6.4,73,0.00,,CLR,0.00,VWS V13.01,2013-05-14 14:59:00,
2013-05-14 11:04:00,48.9,40.1,30.37,West,270,2.4,2.7,71,0.00,,CLR,0.00,VWS V13.01,2013-05-14 15:04:00,
2013-05-14 11:09:00,49.6,40.1,30.37,WSW,248,3.3,3.3,71,0.00,,CLR,0.00,VWS V13.01,2013-05-14 15:09:00,
2013-05-14 11:14:00,50.1,40.6,30.36,West,270,0.6,2.7,70,0.00,,CLR,0.00,VWS V13.01,2013-05-14 15:14:00,
2013-05-14 11:19:00,51.0,41.1,30.37,West,270,0.6,2.7,70,0.00,,CLR,0.00,VWS V13.01,2013-05-14 15:19:00,
2013-05-14 11:24:00,51.2,41.7,30.35,SSW,202,6.0,6.0,70,0.00,,CLR,0.00,VWS V13.01,2013-05-14 15:24:00,
2013-05-14 11:29:00,52.8,41.8,30.36,SW,225,6.4,6.4,63,0.00,,CLR,0.00,VWS V13.01,2013-05-14 15:29:00,
2013-05-14 11:34:00,53.4,40.2,30.35,WSW,248,4.0,4.0,61,0.00,,SCT110,0.00,VWS V13.01,2013-05-14 15:34:00,
2013-05-14 11:39:00,53.7,40.3,30.35,West,270,3.5,3.5,60,0.00,,SCT110,0.00,VWS V13.01,2013-05-14 15:39:00,
2013-05-14 11:44:00,54.1,40.2,30.36,WNW,292,8.2,8.2,59,0.00,,SCT110,0.00,VWS V13.01,2013-05-14 15:44:00,
2013-05-14 11:50:00,54.5,40.1,30.36,WSW,248,4.0,4.0,59,0.00,,SCT110,0.00,VWS V13.01,2013-05-14 15:50:00,
2013-05-14 11:55:00,55.0,40.5,30.36,WNW,292,4.6,4.6,57,0.00,,SCT110,0.00,VWS V13.01,2013-05-14 15:55:00,
2013-05-14 12:00:00,55.2,40.5,30.35,SW,225,6.2,6.2,55,0.00,,SCT110,0.00,VWS V13.01,2013-05-14 16:00:00,
2013-05-14 12:05:00,55.2,39.3,30.35,SSE,158,4.0,4.0,56,0.00,,SCT120,0.00,VWS V13.01,2013-05-14 16:05:00,
2013-05-14 12:10:00,55.7,39.7,30.35,West,270,2.9,2.9,54,0.00,,SCT120,0.00,VWS V13.01,2013-05-14 16:10:00,
2013-05-14 12:15:00,55.7,40.2,30.35,SSW,202,5.8,5.8,54,0.00,,SCT120,0.00,VWS V13.01,2013-05-14 16:15:00,
2013-05-14 12:20:00,56.4,40.2,30.35,WSW,248,2.9,2.9,53,0.00,,SCT120,0.00,VWS V13.01,2013-05-14 16:20:00,
2013-05-14 12:25:00,56.4,40.5,30.35,ESE,112,0.6,2.7,53,0.00,,SCT120,0.00,VWS V13.01,2013-05-14 16:25:00,
2013-05-14 12:30:00,57.9,41.4,30.34,North,0,2.2,2.7,54,0.00,,SCT120,0.00,VWS V13.01,2013-05-14 16:30:00,
2013-05-14 12:35:00,58.6,41.2,30.34,West,270,9.6,9.6,52,0.00,,SCT120,0.00,VWS V13.01,2013-05-14 16:35:00,
2013-05-14 12:40:00,59.1,41.0,30.33,WNW,292,4.9,4.9,50,0.00,,SCT120,0.00,VWS V13.01,2013-05-14 16:40:00,
2013-05-14 12:45:00,59.3,40.0,30.34,SSW,202,5.8,5.8,49,0.00,,SCT120,0.00,VWS V13.01,2013-05-14 16:45:00,
2013-05-14 12:50:00,59.5,39.8,30.34,SSW,202,5.5,5.5,49,0.00,,SCT120,0.00,VWS V13.01,2013-05-14 16:50:00,
2013-05-14 12:55:00,59.5,39.8,30.34,West,270,6.7,6.7,48,0.00,,SCT120,0.00,VWS V13.01,2013-05-14 16:55:00,
2013-05-14 13:00:00,59.5,39.8,30.33,SW,225,6.4,6.4,48,0.00,,SCT120,0.00,VWS V13.01,2013-05-14 17:00:00,
2013-05-14 13:05:00,59.5,39.3,30.32,SSW,202,6.2,6.2,48,0.00,,SCT120,0.00,VWS V13.01,2013-05-14 17:05:00,
2013-05-14 13:10:00,59.3,39.1,30.33,East,90,4.9,4.9,47,0.00,,SCT120,0.00,VWS V13.01,2013-05-14 17:10:00,
2013-05-14 13:16:00,59.1,39.5,30.32,WSW,248,4.9,4.9,48,0.00,,SCT120,0.00,VWS V13.01,2013-05-14 17:16:00,
2013-05-14 13:21:00,59.1,39.5,30.32,West,270,3.3,3.3,48,0.00,,SCT120,0.00,VWS V13.01,2013-05-14 17:21:00,
2013-05-14 13:26:00,59.3,39.1,30.32,WNW,292,4.4,4.4,47,0.00,,SCT120,0.00,VWS V13.01,2013-05-14 17:26:00,
2013-05-14 13:31:00,59.7,38.9,30.33,West,270,4.0,4.0,45,0.00,,SCT120,0.00,VWS V13.01,2013-05-14 17:31:00,
2013-05-14 13:36:00,60.0,38.6,30.32,West,270,6.7,6.7,45,0.00,,SCT120,0.00,VWS V13.01,2013-05-14 17:36:00,
2013-05-14 13:41:00,60.4,39.0,30.32,NW,315,2.9,2.9,45,0.00,,SCT120,0.00,VWS V13.01,2013-05-14 17:41:00,
2013-05-14 13:46:00,60.9,39.0,30.31,SW,225,3.5,3.5,45,0.00,,SCT120,0.00,VWS V13.01,2013-05-14 17:46:00,
2013-05-14 13:51:00,61.3,39.4,30.31,SSW,202,6.4,6.4,44,0.00,,SCT120,0.00,VWS V13.01,2013-05-14 17:51:00,
2013-05-14 13:56:00,61.8,38.7,30.30,WSW,248,7.6,7.6,45,0.00,,SCT120,0.00,VWS V13.01,2013-05-14 17:56:00,
2013-05-14 14:01:00,61.8,37.9,30.30,WNW,292,1.3,2.7,41,0.00,,SCT120,0.00,VWS V13.01,2013-05-14 18:01:00,
2013-05-14 14:06:00,61.8,38.8,30.31,NNW,338,1.3,2.7,43,0.00,,SCT120,0.00,VWS V13.01,2013-05-14 18:06:00,
2013-05-14 14:11:00,62.6,38.6,30.30,SSW,202,6.7,6.7,40,0.00,,BKN110,0.00,VWS V13.01,2013-05-14 18:11:00,
2013-05-14 14:16:00,62.7,37.3,30.30,SSW,202,3.8,3.8,39,0.00,,BKN110,0.00,VWS V13.01,2013-05-14 18:16:00,
2013-05-14 14:21:00,62.7,38.2,30.30,West,270,8.2,8.2,39,0.00,,BKN110,0.00,VWS V13.01,2013-05-14 18:21:00,
2013-05-14 14:26:00,62.7,38.0,30.30,WNW,292,2.6,2.7,39,0.00,,BKN110,0.00,VWS V13.01,2013-05-14 18:26:00,
2013-05-14 14:31:00,62.7,39.3,30.30,SW,225,4.4,4.4,41,0.00,,BKN110,0.00,VWS V13.01,2013-05-14 18:31:00,
2013-05-14 14:36:00,62.7,39.0,30.30,West,270,6.0,6.0,41,0.00,,BKN110,0.00,VWS V13.01,2013-05-14 18:36:00,
2013-05-14 14:41:00,62.7,39.0,30.29,West,270,6.4,6.4,41,0.00,,BKN110,0.00,VWS V13.01,2013-05-14 18:41:00,
2013-05-14 14:46:00,62.9,38.2,30.29,SW,225,4.9,4.9,39,0.00,,BKN110,0.00,VWS V13.01,2013-05-14 18:46:00,
2013-05-14 14:51:00,62.9,37.6,30.28,West,270,4.2,4.2,40,0.00,,BKN110,0.00,VWS V13.01,2013-05-14 18:51:00,
2013-05-14 14:56:00,63.1,37.8,30.29,WSW,248,3.8,3.8,40,0.00,,BKN110,0.00,VWS V13.01,2013-05-14 18:56:00,
2013-05-14 15:01:00,62.7,38.0,30.28,SSE,158,2.4,2.7,39,0.00,,BKN110,0.00,VWS V13.01,2013-05-14 19:01:00,
2013-05-14 15:06:00,62.7,36.7,30.28,West,270,4.6,4.6,39,0.00,,BKN120,0.00,VWS V13.01,2013-05-14 19:06:00,
2013-05-14 15:11:00,62.4,37.1,30.28,West,270,5.5,5.5,39,0.00,,BKN120,0.00,VWS V13.01,2013-05-14 19:11:00,
2013-05-14 15:16:00,62.4,37.1,30.28,SW,225,3.1,3.1,39,0.00,,BKN120,0.00,VWS V13.01,2013-05-14 19:16:00,
2013-05-14 15:21:00,62.4,38.0,30.28,SW,225,6.2,6.2,40,0.00,,BKN120,0.00,VWS V13.01,2013-05-14 19:21:00,
2013-05-14 15:26:00,63.1,37.1,30.28,WSW,248,8.7,8.7,39,0.00,,BKN120,0.00,VWS V13.01,2013-05-14 19:26:00,
2013-05-14 15:31:00,63.1,36.4,30.28,South,180,4.0,4.0,37,0.00,,BKN120,0.00,VWS V13.01,2013-05-14 19:31:00,
2013-05-14 15:36:00,63.1,36.4,30.28,SSW,202,2.0,2.7,37,0.00,,BKN120,0.00,VWS V13.01,2013-05-14 19:36:00,
2013-05-14 15:41:00,63.1,35.4,30.28,WNW,292,6.9,6.9,37,0.00,,BKN120,0.00,VWS V13.01,2013-05-14 19:41:00,
2013-05-14 15:46:00,63.1,35.1,30.28,South,180,3.5,3.5,37,0.00,,BKN120,0.00,VWS V13.01,2013-05-14 19:46:00,
2013-05-14 15:51:00,62.4,34.4,30.28,West,270,6.4,6.4,35,0.00,,BKN120,0.00,VWS V13.01,2013-05-14 19:51:00,
2013-05-14 15:56:00,62.2,33.9,30.29,WNW,292,3.8,3.8,35,0.00,,BKN120,0.00,VWS V13.01,2013-05-14 19:56:00,
2013-05-14 16:01:00,61.8,33.8,30.28,West,270,2.4,2.7,36,0.00,,BKN120,0.00,VWS V13.01,2013-05-14 20:01:00,
2013-05-14 16:06:00,61.7,33.6,30.28,SW,225,3.5,3.5,35,0.00,,BKN120,0.00,VWS V13.01,2013-05-14 20:06:00,
2013-05-14 16:11:00,61.3,33.4,30.28,South,180,3.8,3.8,34,0.00,,BKN120,0.00,VWS V13.01,2013-05-14 20:11:00,
2013-05-14 16:17:00,61.3,34.1,30.28,SW,225,3.8,3.8,35,0.00,,BKN120,0.00,VWS V13.01,2013-05-14 20:17:00,
2013-05-14 16:22:00,61.5,34.3,30.28,SW,225,3.8,3.8,37,0.00,,BKN120,0.00,VWS V13.01,2013-05-14 20:22:00,
2013-05-14 16:27:00,61.5,34.3,30.27,SW,225,3.5,3.5,35,0.00,,BKN120,0.00,VWS V13.01,2013-05-14 20:27:00,
2013-05-14 16:32:00,61.5,33.4,30.27,WNW,292,6.0,6.0,35,0.00,,BKN120,0.00,VWS V13.01,2013-05-14 20:32:00,
2013-05-14 16:37:00,61.1,33.4,30.27,West,270,3.8,3.8,36,0.00,,BKN120,0.00,VWS V13.01,2013-05-14 20:37:00,
2013-05-14 16:42:00,61.1,34.7,30.27,WSW,248,3.8,3.8,36,0.00,,OVC090,0.00,VWS V13.01,2013-05-14 20:42:00,
2013-05-14 16:47:00,61.3,34.1,30.26,SE,135,6.2,6.2,36,0.00,,OVC090,0.00,VWS V13.01,2013-05-14 20:47:00,
2013-05-14 16:52:00,61.3,34.3,30.26,South,180,6.2,6.2,36,0.00,,OVC090,0.00,VWS V13.01,2013-05-14 20:52:00,
2013-05-14 16:57:00,61.7,34.1,30.26,WSW,248,4.9,4.9,36,0.00,,OVC090,0.00,VWS V13.01,2013-05-14 20:57:00,
2013-05-14 17:02:00,61.7,34.1,30.26,South,180,4.2,4.2,37,0.00,,OVC090,0.00,VWS V13.01,2013-05-14 21:02:00,
2013-05-14 17:07:00,61.8,35.3,30.25,SE,135,4.2,4.2,36,0.00,,OVC090,0.00,VWS V13.01,2013-05-14 21:07:00,
2013-05-14 17:12:00,61.8,36.0,30.25,East,90,3.8,3.8,37,0.00,,OVC090,0.00,VWS V13.01,2013-05-14 21:12:00,
2013-05-14 17:17:00,61.8,35.6,30.25,West,270,2.9,2.9,38,0.00,,OVC090,0.00,VWS V13.01,2013-05-14 21:17:00,
2013-05-14 17:22:00,62.4,36.1,30.25,SW,225,2.6,2.7,37,0.00,,OVC090,0.00,VWS V13.01,2013-05-14 21:22:00,
2013-05-14 17:27:00,62.4,35.7,30.24,ESE,112,5.1,5.1,37,0.00,,OVC090,0.00,VWS V13.01,2013-05-14 21:27:00,
2013-05-14 17:32:00,63.3,37.5,30.24,SE,135,1.5,2.7,38,0.00,,OVC090,0.00,VWS V13.01,2013-05-14 21:32:00,
2013-05-14 17:37:00,63.6,38.1,30.24,WSW,248,1.5,2.7,38,0.00,,OVC090,0.00,VWS V13.01,2013-05-14 21:37:00,
2013-05-14 17:42:00,64.5,37.7,30.24,West,270,4.6,4.6,37,0.00,,CLR,0.00,VWS V13.01,2013-05-14 21:42:00,
2013-05-14 17:47:00,64.5,37.7,30.23,SSE,158,3.3,3.3,37,0.00,,CLR,0.00,VWS V13.01,2013-05-14 21:47:00,
2013-05-14 17:52:00,64.5,38.0,30.23,SSE,158,6.4,6.4,37,0.00,,CLR,0.00,VWS V13.01,2013-05-14 21:52:00,
2013-05-14 17:57:00,65.1,37.7,30.24,South,180,6.4,6.4,37,0.00,,CLR,0.00,VWS V13.01,2013-05-14 21:57:00,
2013-05-14 18:02:00,65.3,38.2,30.23,SSE,158,6.4,6.4,38,0.00,,CLR,0.00,VWS V13.01,2013-05-14 22:02:00,
2013-05-14 18:07:00,65.1,38.4,30.22,SW,225,2.6,2.7,37,0.00,,CLR,0.00,VWS V13.01,2013-05-14 22:07:00,
2013-05-14 18:12:00,65.1,37.5,30.22,ESE,112,6.0,6.0,37,0.00,,CLR,0.00,VWS V13.01,2013-05-14 22:12:00,
2013-05-14 18:18:00,65.1,37.7,30.23,SE,135,4.9,4.9,37,0.00,,CLR,0.00,VWS V13.01,2013-05-14 22:18:00,
2013-05-14 18:23:00,65.3,37.7,30.22,South,180,2.0,2.7,37,0.00,,CLR,0.00,VWS V13.01,2013-05-14 22:23:00,
2013-05-14 18:28:00,65.3,37.8,30.22,SSW,202,5.1,5.1,37,0.00,,CLR,0.00,VWS V13.01,2013-05-14 22:28:00,
2013-05-14 18:33:00,65.4,37.8,30.22,SW,225,5.1,5.1,37,0.00,,CLR,0.00,VWS V13.01,2013-05-14 22:33:00,
2013-05-14 18:38:00,65.4,38.5,30.22,SE,135,3.1,3.1,37,0.00,,CLR,0.00,VWS V13.01,2013-05-14 22:38:00,
2013-05-14 18:43:00,65.4,38.5,30.22,SE,135,3.1,3.1,37,0.00,,CLR,0.00,VWS V13.01,2013-05-14 22:43:00,
2013-05-14 18:48:00,65.4,38.1,30.21,SSW,202,6.0,6.0,37,0.00,,CLR,0.00,VWS V13.01,2013-05-14 22:48:00,
2013-05-14 18:53:00,65.8,39.0,30.21,SE,135,6.0,6.0,36,0.00,,CLR,0.00,VWS V13.01,2013-05-14 22:53:00,
2013-05-14 18:58:00,65.8,39.0,30.21,SW,225,1.3,2.7,36,0.00,,CLR,0.00,VWS V13.01,2013-05-14 22:58:00,
2013-05-14 19:03:00,66.0,39.0,30.21,SW,225,1.3,2.7,37,0.00,,CLR,0.00,VWS V13.01,2013-05-14 23:03:00,
2013-05-14 19:08:00,66.0,39.0,30.21,SSW,202,1.3,2.7,37,0.00,,CLR,0.00,VWS V13.01,2013-05-14 23:08:00,
2013-05-14 19:13:00,66.0,38.8,30.21,SSW,202,5.1,5.1,37,0.00,,CLR,0.00,VWS V13.01,2013-05-14 23:13:00,
2013-05-14 19:18:00,66.0,39.2,30.20,SSE,158,5.1,5.1,37,0.00,,CLR,0.00,VWS V13.01,2013-05-14 23:18:00,
2013-05-14 19:24:00,65.6,39.2,30.20,WSW,248,5.1,5.1,38,0.00,,CLR,0.00,VWS V13.01,2013-05-14 23:24:00,
2013-05-14 19:29:00,65.6,39.2,30.20,SW,225,5.1,5.1,38,0.00,,CLR,0.00,VWS V13.01,2013-05-14 23:29:00,
2013-05-14 19:34:00,65.4,39.2,30.20,South,180,5.1,5.1,38,0.00,,CLR,0.00,VWS V13.01,2013-05-14 23:34:00,
2013-05-14 19:39:00,65.3,39.1,30.20,SW,225,5.1,5.1,38,0.00,,CLR,0.00,VWS V13.01,2013-05-14 23:39:00,
2013-05-14 19:44:00,64.9,39.1,30.20,SSW,202,5.1,5.1,38,0.00,,CLR,0.00,VWS V13.01,2013-05-14 23:44:00,
2013-05-14 19:49:00,64.5,38.7,30.20,SSW,202,5.1,5.1,39,0.00,,CLR,0.00,VWS V13.01,2013-05-14 23:49:00,
2013-05-14 19:54:00,64.2,38.3,30.20,SSW,202,5.1,5.1,39,0.00,,CLR,0.00,VWS V13.01,2013-05-14 23:54:00,
2013-05-14 19:59:00,64.5,38.6,30.20,SSW,202,5.1,5.1,38,0.00,,CLR,0.00,VWS V13.01,2013-05-14 23:59:00,
2013-05-14 20:04:00,63.6,38.6,30.20,SSW,202,5.1,5.1,39,0.00,,CLR,0.00,VWS V13.01,2013-05-15 00:04:00,
2013-05-14 20:09:00,64.0,38.8,30.20,SSW,202,5.1,5.1,39,0.00,,CLR,0.00,VWS V13.01,2013-05-15 00:09:00,
2013-05-14 20:14:00,63.5,38.4,30.20,SSW,202,5.1,5.1,40,0.00,,CLR,0.00,VWS V13.01,2013-05-15 00:14:00,
2013-05-14 20:19:00,63.5,38.7,30.20,SSW,202,5.1,5.1,40,0.00,,CLR,0.00,VWS V13.01,2013-05-15 00:19:00,
2013-05-14 20:24:00,63.5,38.4,30.20,SSW,202,5.1,5.1,40,0.00,,CLR,0.00,VWS V13.01,2013-05-15 00:24:00,
2013-05-14 20:29:00,63.5,38.0,30.20,SSW,202,5.1,5.1,40,0.00,,CLR,0.00,VWS V13.01,2013-05-15 00:29:00,
2013-05-14 20:34:00,61.7,38.5,30.20,SSW,202,5.1,5.1,42,0.00,,CLR,0.00,VWS V13.01,2013-05-15 00:34:00,
2013-05-14 20:39:00,61.7,38.0,30.20,SSW,202,5.1,5.1,42,0.00,,CLR,0.00,VWS V13.01,2013-05-15 00:39:00,
2013-05-14 20:44:00,61.3,38.3,30.20,SSW,202,5.1,5.1,42,0.00,,CLR,0.00,VWS V13.01,2013-05-15 00:44:00,
2013-05-14 20:49:00,60.6,38.6,30.20,SSW,202,5.1,5.1,43,0.00,,CLR,0.00,VWS V13.01,2013-05-15 00:49:00,
2013-05-14 20:54:00,60.6,38.0,30.20,SSW,202,5.1,5.1,44,0.00,,CLR,0.00,VWS V13.01,2013-05-15 00:54:00,
2013-05-14 20:59:00,60.6,37.8,30.20,SSW,202,5.1,5.1,44,0.00,,CLR,0.00,VWS V13.01,2013-05-15 00:59:00,
2013-05-14 21:04:00,59.7,38.2,30.20,SSW,202,5.1,5.1,44,0.00,,SCT120,0.00,VWS V13.01,2013-05-15 01:04:00,
2013-05-14 21:09:00,59.3,37.8,30.20,SSW,202,5.1,5.1,45,0.00,,SCT120,0.00,VWS V13.01,2013-05-15 01:09:00,
2013-05-14 21:14:00,59.1,37.8,30.21,SSW,202,5.1,5.1,46,0.00,,SCT120,0.00,VWS V13.01,2013-05-15 01:14:00,
2013-05-14 21:19:00,58.8,38.1,30.21,SSW,202,5.1,5.1,46,0.00,,SCT120,0.00,VWS V13.01,2013-05-15 01:19:00,
2013-05-14 21:24:00,58.8,37.9,30.21,SSW,202,5.1,5.1,46,0.00,,SCT120,0.00,VWS V13.01,2013-05-15 01:24:00,
2013-05-14 21:29:00,58.8,38.3,30.21,SSW,202,5.1,5.1,46,0.00,,SCT120,0.00,VWS V13.01,2013-05-15 01:29:00,
2013-05-14 21:35:00,58.1,38.1,30.21,SSW,202,5.1,5.1,47,0.00,,SCT120,0.00,VWS V13.01,2013-05-15 01:35:00,
2013-05-14 21:40:00,58.8,37.8,30.21,SSW,202,5.1,5.1,46,0.00,,SCT120,0.00,VWS V13.01,2013-05-15 01:40:00,
2013-05-14 21:45:00,57.5,38.1,30.21,SSW,202,5.1,5.1,48,0.00,,SCT120,0.00,VWS V13.01,2013-05-15 01:45:00,
2013-05-14 21:50:00,57.3,37.8,30.21,SSW,202,5.1,5.1,48,0.00,,SCT120,0.00,VWS V13.01,2013-05-15 01:50:00,
2013-05-14 21:55:00,57.0,37.8,30.21,SSW,202,5.1,5.1,49,0.00,,SCT120,0.00,VWS V13.01,2013-05-15 01:55:00,
2013-05-14 22:00:00,57.0,38.0,30.22,SSW,202,5.1,5.1,49,0.00,,SCT120,0.00,VWS V13.01,2013-05-15 02:00:00,
2013-05-14 22:05:00,56.8,38.4,30.22,SSW,202,5.1,5.1,50,0.00,,SCT110,0.00,VWS V13.01,2013-05-15 02:05:00,
2013-05-14 22:10:00,56.8,38.4,30.22,SSW,202,5.1,5.1,50,0.00,,SCT110,0.00,VWS V13.01,2013-05-15 02:10:00,
2013-05-14 22:15:00,56.8,38.4,30.22,SSW,202,5.1,5.1,50,0.00,,SCT110,0.00,VWS V13.01,2013-05-15 02:15:00,
2013-05-14 22:20:00,56.8,38.2,30.22,SSW,202,5.1,5.1,50,0.00,,SCT110,0.00,VWS V13.01,2013-05-15 02:20:00,
2013-05-14 22:25:00,56.4,38.5,30.22,SSW,202,5.1,5.1,51,0.00,,SCT110,0.00,VWS V13.01,2013-05-15 02:25:00,
2013-05-14 22:30:00,56.3,38.4,30.22,SSW,202,5.1,5.1,51,0.00,,SCT110,0.00,VWS V13.01,2013-05-15 02:30:00,
2013-05-14 22:36:00,56.1,38.2,30.22,SSW,202,5.1,5.1,51,0.00,,SCT110,0.00,VWS V13.01,2013-05-15 02:36:00,
2013-05-14 22:41:00,55.9,38.0,30.22,SSW,202,5.1,5.1,51,0.00,,BKN110,0.00,VWS V13.01,2013-05-15 02:41:00,
2013-05-14 22:46:00,55.7,37.9,30.22,SSW,202,5.1,5.1,51,0.00,,BKN110,0.00,VWS V13.01,2013-05-15 02:46:00,
2013-05-14 22:51:00,55.4,37.9,30.22,SSW,202,5.1,5.1,51,0.00,,BKN110,0.00,VWS V13.01,2013-05-15 02:51:00,
2013-05-14 22:56:00,55.7,37.9,30.22,SSW,202,5.1,5.1,51,0.00,,BKN110,0.00,VWS V13.01,2013-05-15 02:56:00,
2013-05-14 23:01:00,55.2,37.7,30.22,SSW,202,5.1,5.1,52,0.00,,BKN110,0.00,VWS V13.01,2013-05-15 03:01:00,
2013-05-14 23:06:00,55.0,37.7,30.22,SSW,202,5.1,5.1,52,0.00,,BKN110,0.00,VWS V13.01,2013-05-15 03:06:00,
2013-05-14 23:11:00,54.8,38.0,30.22,SSW,202,5.1,5.1,53,0.00,,SCT090,0.00,VWS V13.01,2013-05-15 03:11:00,
2013-05-14 23:16:00,54.8,37.8,30.22,SSW,202,5.1,5.1,53,0.00,,SCT090,0.00,VWS V13.01,2013-05-15 03:16:00,
2013-05-14 23:21:00,54.6,38.3,30.22,SSW,202,5.1,5.1,54,0.00,,SCT090,0.00,VWS V13.01,2013-05-15 03:21:00,
2013-05-14 23:27:00,54.6,38.8,30.22,SSW,202,5.1,5.1,54,0.00,,SCT090,0.00,VWS V13.01,2013-05-15 03:27:00,
2013-05-14 23:32:00,54.6,38.8,30.23,SSW,202,5.1,5.1,55,0.00,,SCT090,0.00,VWS V13.01,2013-05-15 03:32:00,
2013-05-14 23:37:00,54.8,39.0,30.23,SSW,202,5.1,5.1,55,0.00,,SCT090,0.00,VWS V13.01,2013-05-15 03:37:00,
2013-05-14 23:42:00,54.8,39.2,30.22,SSW,202,5.1,5.1,55,0.00,,CLR,0.00,VWS V13.01,2013-05-15 03:42:00,
2013-05-14 23:47:00,55.0,39.2,30.22,SSW,202,5.1,5.1,56,0.00,,CLR,0.00,VWS V13.01,2013-05-15 03:47:00,
2013-05-14 23:52:00,55.0,39.8,30.22,SSW,202,5.1,5.1,56,0.00,,CLR,0.00,VWS V13.01,2013-05-15 03:52:00,
2013-05-14 23:57:00,55.2,39.6,30.22,SSW,202,5.1,5.1,56,0.00,,CLR,0.00,VWS V13.01,2013-05-15 03:57:00,